Content
SEND FEEDBACK

Daily
Averages
Monthly
Summary
United Kingdom

BOVINGDON, ENGLAND


Home > Europe > United Kingdom > England
Elevation: 535 feet     Latitude: 51 43N     Longitude: 000 32W

WEATHER
 
SELECT A DAY
Number of Records: 289,488;   Date Range: 7/1/96 - 7/28/14
 
SHARE

PRINT THIS DATA

[ ← Previous Day ]
WEATHER ALMANAC - APRIL 19, 2014
[ Next Day → ]
[ °C ]   °F
Weather ElementAverageHighLow
Temperature44.4 °F55.4 °F (3:50 pm)33.8 °F (3:20 am)
Dewpoint36.5 °F39.2 °F (1:50 pm)32 °F (2:50 am)
Humidity75.2 %93 % (2:20 am)54 % (3:50 pm)
Barometer30.06 in30.12 in (12:50 am)29.98 in (11:20 pm)
Wind Speed9.2 mph15 mph (7:20 pm)
Weather ElementAverage
Visibility6.2 mi
Wind DirectionENE (58.3 °)

Weather ElementTotal
Precipitation---
Heating Degree Days20.4 (Base 65)
Averaged from 46 records on April 19, 2014
WEATHER CONDITIONS BREAKOUT
WIND DIRECTION BREAKOUT
WEATHER BY HOUR - APRIL 19, 2014
[ °C ]   °F
Local TimeTemperatureDewpointHumidityBarometerVisibilityWind DirectionWind SpeedGust SpeedPrecipitationEventsConditions
12:50 AM37.4 °F33.8 °F87 %30.12 inNorth (360°)3.5 mphClear
1:20 AM37.4 °F33.8 °F87 %30.12 in6.2 miNorth (10°)3.5 mphPartly Cloudy
1:50 AM37.4 °F33.8 °F87 %30.12 inNorth (360°)3.5 mphClear
2:20 AM35.6 °F33.8 °F93 %30.12 inNNE (20°)4.6 mphClear
2:50 AM35.6 °F32.0 °F87 %30.12 inNNE (20°)4.6 mphClear
3:20 AM33.8 °F32.0 °F93 %30.09 inNNE (20°)4.6 mphClear
3:50 AM33.8 °F32.0 °F93 %30.09 inNNE (20°)4.6 mphClear
4:20 AM33.8 °F32.0 °F93 %30.09 inNNE (20°)4.6 mphClear
4:50 AM35.6 °F33.8 °F93 %30.09 in6.2 miNorth (10°)4.6 mphScattered Clouds
5:20 AM35.6 °F33.8 °F93 %30.09 in6.2 miNNE (30°)5.8 mphScattered Clouds
5:50 AM37.4 °F33.8 °F87 %30.09 in6.2 miNorth (10°)4.6 mphMostly Cloudy
6:20 AM37.4 °F33.8 °F87 %30.09 in6.2 miNNE (30°)5.8 mphMostly Cloudy
6:50 AM37.4 °F33.8 °F87 %30.09 in6.2 miNNE (20°)5.8 mphMostly Cloudy
7:20 AM37.4 °F35.6 °F93 %30.09 in6.2 miNNE (30°)6.9 mphMostly Cloudy
7:50 AM39.2 °F35.6 °F87 %30.09 in6.2 miNNE (20°)8.1 mphOvercast
8:20 AM41.0 °F35.6 °F81 %30.09 in6.2 miNE (40°)8.1 mphMostly Cloudy
8:50 AM42.8 °F35.6 °F76 %30.09 in6.2 miNE (40°)9.2 mphMostly Cloudy
9:20 AM44.6 °F35.6 °F71 %30.09 in6.2 miNE (50°)11.5 mphMostly Cloudy
10:20 AM46.4 °F35.6 °F66 %30.09 in6.2 miNE (40°)13.8 mphMostly Cloudy
10:50 AM46.4 °F35.6 °F66 %30.09 in6.2 miNE (50°)13.8 mphMostly Cloudy
11:20 AM50.0 °F35.6 °F58 %30.09 in6.2 miENE (70°)10.4 mphScattered Clouds
11:50 AM50.0 °F37.4 °F62 %30.06 in6.2 miENE (60°)12.7 mphMostly Cloudy
12:20 PM48.2 °F37.4 °F66 %30.06 in6.2 miNE (50°)9.2 mphMostly Cloudy
12:50 PM50.0 °F37.4 °F62 %30.06 in6.2 miENE (70°)10.4 mphMostly Cloudy
1:20 PM50.0 °F37.4 °F62 %30.06 in6.2 miNE (40°)10.4 mphMostly Cloudy
1:50 PM50.0 °F39.2 °F66 %30.06 in6.2 miNE (40°)10.4 mphMostly Cloudy
2:20 PM51.8 °F39.2 °F62 %30.06 in6.2 miNE (50°)11.5 mphScattered Clouds
2:50 PM53.6 °F39.2 °F58 %30.04 in6.2 miEast (80°)11.5 mphMostly Cloudy
3:20 PM53.6 °F39.2 °F58 %30.04 in6.2 miEast (80°)11.5 mphScattered Clouds
3:50 PM55.4 °F39.2 °F54 %30.04 in6.2 miENE (70°)10.4 mphScattered Clouds
4:20 PM55.4 °F39.2 °F54 %30.04 in6.2 miENE (60°)11.5 mphScattered Clouds
4:50 PM53.6 °F37.4 °F54 %30.01 in6.2 miENE (70°)12.7 mphScattered Clouds
5:20 PM51.8 °F37.4 °F58 %30.01 in6.2 miENE (60°)12.7 mphScattered Clouds
5:50 PM51.8 °F37.4 °F58 %30.01 in6.2 miENE (60°)11.5 mphScattered Clouds
6:20 PM53.6 °F39.2 °F58 %30.01 in6.2 miNE (50°)12.7 mphScattered Clouds
6:50 PM51.8 °F37.4 °F58 %30.01 in6.2 miENE (60°)13.8 mphPartly Cloudy
7:20 PM50.0 °F39.2 °F66 %30.01 in6.2 miENE (60°)15.0 mphPartly Cloudy
7:50 PM48.2 °F39.2 °F71 %30.01 inENE (70°)12.7 mphClear
8:20 PM46.4 °F39.2 °F76 %30.01 in6.2 miENE (70°)12.7 mphPartly Cloudy
8:50 PM46.4 °F39.2 °F76 %30.01 inENE (70°)12.7 mphClear
9:20 PM44.6 °F39.2 °F81 %30.01 inENE (60°)10.4 mphClear
9:50 PM42.8 °F39.2 °F87 %30.01 inENE (60°)9.2 mphClear
10:20 PM42.8 °F37.4 °F81 %30.01 inNE (50°)6.9 mphClear
10:50 PM41.0 °F37.4 °F87 %30.01 inNNE (30°)8.1 mphClear
11:20 PM41.0 °F39.2 °F93 %29.98 inNNE (20°)10.4 mphClear
11:50 PM41.0 °F37.4 °F87 %29.98 inNNE (20°)11.5 mphClear
Hourly data recorded from EGGW, located miles away from Bovingdon, England







STORIES FROM OUR PARTNERS